DW6178 Weather Reports


Display with metric or nautical units.
time (UTC)temp
F
wind
direction
speed
MPH
gust
MPH
rain 1hr
in
rain 24hr
in
rain mn
in
humidity
%
barometer
mb
20260901030036 63 214 0.0 1.0 0.00 0.00 0.00 21 1009.7
20260901024535 63 221 0.0 2.0 0.00 0.00 0.00 22 1009.5
20260901023040 63 248 0.0 1.0 0.00 0.00 0.00 29 1009.1
20260901021534 63 235 0.0 1.0 0.00 0.00 0.00 27 1008.9
20260901020036 64 207 0.0 2.0 0.00 0.00 0.00 33 1008.7
20260901014515 64 217 1.0 4.0 0.00 0.00 0.00 37 1008.6
20260901013016 64 194 1.0 4.0 0.00 0.00 0.00 53 1008.6
20260901011558 64 199 1.0 4.0 0.00 0.00 0.00 61 1008.7
20260901010057 65 207 2.0 6.0 0.00 0.00 0.00 60 1008.8
20260901004539 65 191 2.0 5.0 0.00 0.00 0.00 59 1008.8
20260901003038 65 201 3.0 7.0 0.00 0.00 0.00 60 1008.8
20260901001526 66 197 2.0 8.0 0.00 0.00 0.00 61 1009.0
20260901000024 67 195 3.0 6.0 0.00 0.00 0.00 61 1009.1
20260831234524 67 195 2.0 8.0 0.00 0.00 0.00 61 1009.0
20260831233023 67 190 3.0 9.0 0.00 0.00 0.00 61 1009.0
20260831231523 68 201 2.0 7.0 0.00 0.00 0.00 61 1009.0
20260831230021 68 236 2.0 8.0 0.00 0.00 0.00 60 1009.2
20260831224521 69 185 3.0 8.0 0.00 0.00 0.00 60 1009.2
20260831223020 69 165 3.0 9.0 0.00 0.00 0.00 60 1009.3
20260831221504 70 142 4.0 8.0 0.00 0.00 0.00 58 1009.4
20260831220001 71 162 2.0 7.0 0.00 0.00 0.00 58 1009.5
20260831214558 72 160 3.0 6.0 0.00 0.00 0.00 56 1009.6
20260831213056 73 165 1.0 9.0 0.00 0.00 0.00 52 1009.8
20260831211602 72 240 1.0 9.0 0.00 0.00 0.00 49 1010.0
20260831210050 72 190 4.0 8.0 0.00 0.00 0.00 49 1010.2
20260831204548 72 153 2.0 8.0 0.00 0.00 0.00 47 1010.3
20260831203048 73 203 2.0 8.0 0.00 0.00 0.00 45 1010.3
20260831201547 72 194 3.0 8.0 0.00 0.00 0.00 43 1010.3
20260831200042 72 174 2.0 8.0 0.00 0.00 0.00 44 1010.4
20260831194615 71 195 4.0 9.0 0.00 0.00 0.00 43 1010.5
20260831193022 71 215 3.0 6.0 0.00 0.00 0.00 44 1010.6
20260831191522 71 212 4.0 7.0 0.00 0.00 0.00 44 1010.6
20260831190002 71 144 2.0 6.0 0.00 0.00 0.00 47 1010.6
20260831184501 71 195 3.0 6.0 0.00 0.00 0.00 46 1010.6
20260831183046 70 190 3.0 8.0 0.00 0.00 0.00 42 1010.6
20260831181540 69 208 1.0 5.0 0.00 0.00 0.00 40 1010.5
20260831180033 69 172 2.0 7.0 0.00 0.00 0.00 43 1010.4
20260831174549 70 177 1.0 6.0 0.00 0.00 0.00 41 1010.4
20260831173031 70 208 2.0 8.0 0.00 0.00 0.00 44 1010.4
20260831171540 69 237 1.0 7.0 0.00 0.00 0.00 48 1010.3
20260831170055 68 248 1.0 4.0 0.00 0.00 0.00 48 1010.1
20260831164531 68 237 0.0 6.0 0.00 0.00 0.00 47 1010.0
20260831163005 67 233 2.0 7.0 0.00 0.00 0.00 44 1009.9
20260831161503 67 203 0.0 4.0 0.00 0.00 0.00 47 1009.9
20260831160044 66 210 0.0 5.0 0.00 0.00 0.00 49 1009.9
20260831154544 65 246 0.0 2.0 0.00 0.00 0.00 47 1009.9
20260831153020 65 257 0.0 2.0 0.00 0.00 0.00 45 1009.9
20260831151525 64 214 0.0 6.0 0.00 0.00 0.00 43 1010.0
20260831150059 64 248 0.0 3.0 0.00 0.00 0.00 40 1009.9
20260831144557 63 258 0.0 5.0 0.00 0.00 0.00 36 1009.8
20260831143038 63 246 0.0 3.0 0.00 0.00 0.00 25 1009.7
20260831141533 63 224 0.0 0.0 0.00 0.00 0.00 19 1009.5
20260831140022 63 269 0.0 0.0 0.00 0.00 0.00 20 1009.3
20260831134511 63 248 0.0 0.0 0.00 0.00 0.00 19 1009.1
20260831133051 63 257 0.0 6.0 0.00 0.00 0.00 16 1008.8
20260831131551 63 283 0.0 1.0 0.00 0.00 0.00 16 1008.6
20260831130032 63 233 0.0 1.0 0.00 0.00 0.00 15 1008.5
20260831124535 63 261 0.0 1.0 0.00 0.00 0.00 15 1008.4
20260831123012 62 146 0.0 4.0 0.00 0.00 0.00 16 1008.2
20260831121516 63 250 0.0 1.0 0.00 0.00 0.00 16 1008.2
20260831120052 63 290 0.0 2.0 0.00 0.00 0.00 16 1008.2
20260831114552 62 250 0.0 3.0 0.00 0.00 0.00 16 1008.2
20260831113035 62 293 0.0 1.0 0.00 0.00 0.00 18 1008.1
20260831111533 62 256 0.0 2.0 0.00 0.00 0.00 19 1008.3
20260831110012 62 262 0.0 1.0 0.00 0.00 0.00 19 1008.4
20260831104517 62 243 0.0 1.0 0.00 0.00 0.00 19 1008.4
20260831103103 62 247 0.0 0.0 0.00 0.00 0.00 19 1008.5
20260831101556 63 251 0.0 1.0 0.00 0.00 0.00 19 1008.5
20260831100037 63 240 0.0 0.0 0.00 0.00 0.00 20 1008.4
20260831094532 63 185 0.0 2.0 0.00 0.00 0.00 18 1008.4
20260831093010 63 245 0.0 0.0 0.00 0.00 0.00 18 1008.5
20260831091507 63 238 0.0 0.0 0.00 0.00 0.00 16 1008.6
20260831090059 64 259 0.0 0.0 0.00 0.00 0.00 18 1008.6
20260831084547 64 255 0.0 0.0 0.00 0.00 0.00 17 1008.8
20260831083027 64 270 0.0 2.0 0.00 0.00 0.00 19 1008.8
20260831081526 64 259 0.0 1.0 0.00 0.00 0.00 17 1008.8
20260831080020 64 243 0.0 0.0 0.00 0.00 0.00 17 1008.9
20260831074506 64 264 0.0 0.0 0.00 0.00 0.00 16 1008.9
20260831073048 64 258 0.0 2.0 0.00 0.00 0.00 22 1009.0
20260831071547 64 264 0.0 0.0 0.00 0.00 0.00 22 1008.9
20260831070026 65 251 0.0 0.0 0.00 0.00 0.00 32 1008.8
20260831064526 65 278 0.0 0.0 0.00 0.00 0.00 31 1008.9
20260831063007 65 285 0.0 0.0 0.00 0.00 0.00 32 1008.9
20260831061507 65 285 0.0 0.0 0.00 0.00 0.00 31 1008.7
20260831060048 65 288 0.0 0.0 0.00 0.00 0.00 31 1008.8
20260831054549 65 284 0.0 0.0 0.00 0.00 0.00 32 1008.8
20260831053030 65 264 0.0 0.0 0.00 0.00 0.00 32 1008.7
20260831051532 65 261 0.0 0.0 0.00 0.00 0.00 36 1008.7
20260831050009 66 288 0.0 0.0 0.00 0.00 0.00 36 1008.7
20260831044513 66 288 0.0 0.0 0.00 0.00 0.00 35 1008.7
20260831043056 66 288 0.0 0.0 0.00 0.00 0.00 34 1008.6
20260831041611 66 281 0.0 0.0 0.00 0.00 0.00 34 1008.6
20260831040033 66 289 0.0 0.0 0.00 0.00 0.00 35 1008.4
20260831034532 66 287 0.0 0.0 0.00 0.00 0.00 35 1008.3
20260831033014 66 288 0.0 0.0 0.00 0.00 0.00 34 1008.1
20260831031514 66 290 0.0 0.0 0.00 0.00 0.00 35 1008.0